Location: Gönnheim
(49.4488°N, 8.2383°E)
Time: 00:51:30
(UTC+00:00)

Cosmos 1420 Rocket - Pass Details

Date: 19 May 2025
Orbit: 750 x 777 km, 74.0° (Epoch: 15 June)

Event Time Altitude Azimuth Distance (km) Brightness Sun altitude
Rises 23:34:14 0° 334° (NNW) 3,271 8.3 -20.5°
Reaches altitude 10° 23:36:38 10° 331° (NNW) 2,338 7.3 -20.5°
Maximum altitude 23:41:53 64° 251° (WSW) 858 4.1 -20.4°
Enters shadow 23:43:27 43° 190° (S) 1,075 4.3 -20.4°
